Погода в Раевском

Россия / Республика Башкортостан     54°03′53″N   54°55′58″E
темп.,
°C
ветер,
м/с
пор.,
м/с
влажн.,
%
обл.,
%
осадки,
мм/ч
давл.,
гПа
погр.,
м
18 апреля, вс
вс1823:00+9ссв410600 0.0 1021236
02:00+6с36650 0.0 1020109
05:00+5с34684 0.0 102063
08:00+5с38632 0.0 1019238
11:00+10ссв67440 0.0 1019835
14:00+13ссв67370 0.0 10191300
17:00+13ссв67395 0.0 10191723
20:00+10св812585 0.0 1020777
19 апреля, пн
пн1923:00+5св712721 0.0 1022494
02:00+4всв587772 0.0 1023318
05:00+4в5963100 0.0 1025675
08:00+3в6860100 0.0 1026828
11:00+4в6753100 0.0 10281077
14:00+7в673987 0.0 10271514
17:00+8в773432 0.0 10271733
20:00+5в610375 0.0 1029432
20 апреля, вт
вт2023:00+2вюв612410 0.0 1031425
02:00−1в49510 0.0 1033270
05:00−2в38540 0.0 1034257
08:000в58410 0.0 1035663
11:00+4вюв56310 0.0 10341106
14:00+7в44290 0.0 10331349
17:00+8в34280 0.0 10321410
20:00+6всв22400 0.0 103120
21 апреля, ср
ср2123:00+3всв22470 0.0 103211
02:00+2юв11490 0.0 103210
05:00+1ююз11520 0.0 103310
08:00+3ююз22475 0.0 1033134
11:00+8ююв453254 0.0 1033963
14:00+11юв563099 0.0 10311119
17:00+12ююв573075 0.0 10301379
20:00+9ююв354592 0.0 103182
22 апреля, чт
чт2223:00+6ю395297 0.0 1031172
02:00+5ююв4954100 0.0 1032182
05:00+4ююв41056100 0.0 1032213
08:00+5ююв51255100 0.0 1033473
11:00+10ю71039100 0.0 10331026
14:00+11ю7103489 0.0 10331446
17:00+12ю6934100 0.0 10321540
20:00+10ююв3748100 0.0 1032163